This demonstration page uses our WeatherBlox Daily Observations layout. Learn more.

Left ArrowRight Arrow

39.29038, -76.61219

Hourly Observations for September 1, 2020

Temp ( °F °C ) Dew Point ( °F °C ) Humidity (%) Winds ( mph kmh ) Pressure ( in mb ) Visibility ( mi km ) Precip ( " mm )
12:54 am 00:54 Cloudy 69 20.6 65 18.3 87 87 E 3 6 30.06 1018 10 16 0.00 0.00
1:54 am 01:54 Cloudy 69 20.6 64 17.8 84 84 E 6 9 30.05 1018 10 16 0.00 0.00
2:54 am 02:54 Cloudy 69 20.6 64 17.8 84 84 E 6 9 30.04 1017 10 16 0.00 0.00
3:54 am 03:54 Cloudy 69 20.6 65 18.3 87 87 Calm 30.03 1017 10 16 0.00 0.00
4:54 am 04:54 Cloudy 70 21.1 63 17.2 79 79 ENE 5 7 30.03 1017 10 16 0.00 0.00
5:54 am 05:54 Cloudy 70 21.1 64 17.8 82 82 E 6 9 30.03 1017 10 16 0.00 0.00
6:54 am 06:54 Cloudy 71 21.7 64 17.8 79 79 ENE 7 11 30.04 1017 10 16 0.00 0.00
7:14 am 07:14 Cloudy with Light Rain 71 21.7 64 17.8 79 79 ENE 8 13 30.04 1017 10 16 0.00 0.00
7:54 am 07:54 Cloudy 71 21.7 65 18.3 81 81 E 7 11 30.05 1018 10 16 0.00 0.00
8:54 am 08:54 Cloudy 72 22.2 67 19.4 84 84 ENE 7 11 30.05 1018 10 16 0.00 0.00
9:54 am 09:54 Cloudy 73 22.8 68 20 84 84 E 7 11 30.06 1018 10 16 0.00 0.00
10:54 am 10:54 Cloudy 75 23.9 69 20.6 82 82 E 7 11 30.07 1018 10 16 0.00 0.00
11:54 am 11:54 Cloudy 76 24.4 70 21.1 82 82 ENE 6 9 30.06 1018 10 16 0.00 0.00
12:14 pm 12:14 Cloudy 76 24.4 70 21.1 82 82 ENE 5 7 30.06 1018 10 16 0.00 0.00
12:54 pm 12:54 Cloudy 77 25 70 21.1 79 79 E 5 7 30.06 1018 10 16 0.00 0.00
1:28 pm 13:28 Cloudy 77 25 70 21.1 79 79 E 7 11 30.05 1018 10 16 0.00 0.00
1:50 pm 13:50 Mostly Cloudy 79 26 72 22 79 79 E 7 11 30.03 1017 10 16 0.00 0.00
1:54 pm 13:54 Mostly Cloudy 79 26.1 72 22.2 79 79 ESE 7 11 30.04 1017 10 16 0.00 0.00
2:54 pm 14:54 Mostly Cloudy 80 26.7 69 20.6 69 69 ESE 8 13 30.02 1017 10 16 0.00 0.00
3:54 pm 15:54 Mostly Cloudy 79 26.1 66 18.9 65 65 SE 5 7 30.01 1016 10 16 0.00 0.00
4:54 pm 16:54 Cloudy 79 26.1 69 20.6 72 72 SSE 3 6 30.01 1016 10 16 0.00 0.00
5:54 pm 17:54 Cloudy 79 26.1 69 20.6 72 72 E 5 7 30.01 1016 10 16 0.00 0.00
6:54 pm 18:54 Cloudy with Light Rain 77 25 70 21.1 79 79 E 6 9 30.01 1016 7 11 0.00 0.00
7:54 pm 19:54 Mostly Cloudy 76 24.4 70 21.1 82 82 E 6 9 30.01 1016 10 16 0.00 0.00
8:54 pm 20:54 Mostly Cloudy 76 24.4 68 20 77 77 E 8 13 30.02 1017 10 16 0.00 0.00
9:54 pm 21:54 Cloudy 76 24.4 68 20 77 77 E 7 11 30.03 1017 10 16 0.00 0.00
10:54 pm 22:54 Cloudy 75 23.9 69 20.6 82 82 ESE 5 7 30.03 1017 10 16 0.00 0.00
11:54 pm 23:54 Cloudy 75 23.9 69 20.6 82 82 ESE 6 9 30.02 1017 10 16 0.00 0.00

Powered by AerisWeather